• In Italy
  • List of Countries
  • For 7 days
  • Water Temperature
  • Satellite Maps
  • Weather Map
  • Weather Widgets
  • user-avatar
    Login

    Hourly Weather Kuta

    Today, 21 September, Thursday

    Time Temperature Precipitation Wind Pressure Humidity
    00:00 +27°C° 0 mm 6 mps 758 mmHg 81%
    01:00 +27°C° 0 mm 6 mps 757 mmHg 80%
    02:00 +27°C° 0 mm 6 mps 757 mmHg 79%
    03:00 +26°C° 0 mm 6 mps 757 mmHg 79%
    04:00 +26°C° 0 mm 6 mps 757 mmHg 78%
    05:00 +26°C° 0 mm 6 mps 757 mmHg 78%
    06:00 +26°C° 0 mm 6 mps 757 mmHg 77%
    07:00 +28°C° 0 mm 5 mps 757 mmHg 73%
    08:00 +29°C° 0 mm 5 mps 758 mmHg 68%
    09:00 +32°C° 0 mm 5 mps 758 mmHg 64%
    10:00 +32°C° 0 mm 5 mps 758 mmHg 61%
    11:00 +33°C° 0 mm 5 mps 757 mmHg 57%
    12:00 +34°C° 0 mm 5 mps 757 mmHg 54%
    13:00 +34°C° 0 mm 5 mps 756 mmHg 55%
    14:00 +33°C° 0 mm 5 mps 756 mmHg 56%
    15:00 +33°C° 0 mm 5 mps 755 mmHg 57%
    16:00 +32°C° 0 mm 5 mps 755 mmHg 62%
    17:00 +30°C° 0 mm 5 mps 756 mmHg 67%
    18:00 +28°C° 0 mm 5 mps 756 mmHg 72%
    19:00 +28°C° 0 mm 5 mps 756 mmHg 72%
    20:00 +28°C° 0 mm 5 mps 757 mmHg 73%
    21:00 +28°C° 0 mm 5 mps 758 mmHg 73%
    22:00 +27°C° 0.1 mm 5 mps 757 mmHg 73%
    23:00 +27°C° 0.1 mm 5 mps 757 mmHg 73%

    Tomorrow, 22 September, Friday

    Time Temperature Precipitation Wind Pressure Humidity
    00:00 +27°C° 0.1 mm 5 mps 757 mmHg 73%
    01:00 +27°C° 0 mm 5 mps 757 mmHg 73%
    02:00 +27°C° 0 mm 5 mps 756 mmHg 73%
    03:00 +27°C° 0 mm 6 mps 756 mmHg 73%
    04:00 +27°C° 0 mm 5 mps 756 mmHg 74%
    05:00 +27°C° 0 mm 5 mps 756 mmHg 75%
    06:00 +26°C° 0 mm 5 mps 757 mmHg 76%
    07:00 +29°C° 0 mm 5 mps 757 mmHg 68%
    08:00 +32°C° 0 mm 5 mps 758 mmHg 61%
    09:00 +34°C° 0 mm 5 mps 758 mmHg 53%
    10:00 +34°C° 0 mm 5 mps 758 mmHg 52%
    11:00 +35°C° 0 mm 5 mps 757 mmHg 51%
    12:00 +35°C° 0 mm 5 mps 757 mmHg 50%
    13:00 +35°C° 0 mm 6 mps 756 mmHg 51%
    14:00 +34°C° 0 mm 6 mps 756 mmHg 53%
    15:00 +34°C° 0 mm 6 mps 755 mmHg 55%
    16:00 +32°C° 0.1 mm 6 mps 756 mmHg 61%
    17:00 +30°C° 0.1 mm 5 mps 756 mmHg 66%
    18:00 +29°C° 0.1 mm 5 mps 757 mmHg 72%
    19:00 +28°C° 0.1 mm 5 mps 757 mmHg 73%
    20:00 +28°C° 0.1 mm 5 mps 758 mmHg 74%
    21:00 +28°C° 0.1 mm 5 mps 759 mmHg 75%
    22:00 +28°C° 0.1 mm 5 mps 758 mmHg 75%
    23:00 +28°C° 0.1 mm 5 mps 758 mmHg 75%

    Day after tomorrow, 23 September, Saturday

    Time Temperature Precipitation Wind Pressure Humidity
    00:00 +27°C° 0.1 mm 5 mps 758 mmHg 76%
    01:00 +27°C° 0 mm 5 mps 757 mmHg 76%
    02:00 +27°C° 0 mm 5 mps 757 mmHg 75%
    03:00 +27°C° 0 mm 5 mps 756 mmHg 75%
    04:00 +27°C° 0 mm 5 mps 756 mmHg 76%
    05:00 +27°C° 0 mm 5 mps 757 mmHg 76%
    06:00 +27°C° 0 mm 5 mps 757 mmHg 76%
    07:00 +28°C° 0 mm 5 mps 758 mmHg 72%
    08:00 +30°C° 0 mm 5 mps 758 mmHg 67%
    09:00 +32°C° 0 mm 5 mps 759 mmHg 62%
    10:00 +33°C° 0 mm 6 mps 758 mmHg 58%
    11:00 +34°C° 0 mm 6 mps 758 mmHg 53%
    12:00 +36°C° 0 mm 6 mps 757 mmHg 49%
    13:00 +35°C° 0 mm 6 mps 757 mmHg 50%
    14:00 +35°C° 0 mm 6 mps 756 mmHg 51%
    15:00 +34°C° 0 mm 7 mps 755 mmHg 52%
    16:00 +33°C° 0 mm 6 mps 756 mmHg 59%
    17:00 +30°C° 0 mm 6 mps 756 mmHg 65%
    18:00 +29°C° 0 mm 5 mps 757 mmHg 72%
    19:00 +28°C° 0 mm 5 mps 757 mmHg 73%
    20:00 +28°C° 0 mm 5 mps 758 mmHg 75%
    21:00 +27°C° 0 mm 5 mps 759 mmHg 77%
    22:00 +27°C° 0 mm 5 mps 758 mmHg 76%
    23:00 +27°C° 0 mm 5 mps 758 mmHg 76%

    24 September, Sunday

    Time Temperature Precipitation Wind Pressure Humidity
    00:00 +27°C° 0 mm 5 mps 758 mmHg 76%
    01:00 +27°C° 0 mm 5 mps 757 mmHg 75%
    02:00 +27°C° 0 mm 5 mps 757 mmHg 75%
    03:00 +27°C° 0 mm 5 mps 756 mmHg 75%
    04:00 +27°C° 0 mm 5 mps 756 mmHg 76%
    05:00 +27°C° 0 mm 5 mps 757 mmHg 76%
    06:00 +27°C° 0 mm 5 mps 757 mmHg 76%
    07:00 +29°C° 0 mm 5 mps 758 mmHg 70%
    08:00 +30°C° 0 mm 5 mps 758 mmHg 63%
    09:00 +33°C° 0 mm 5 mps 758 mmHg 57%
    10:00 +34°C° 0 mm 5 mps 758 mmHg 53%
    11:00 +35°C° 0 mm 6 mps 757 mmHg 50%
    12:00 +36°C° 0 mm 6 mps 756 mmHg 46%
    13:00 +36°C° 0 mm 6 mps 756 mmHg 48%
    14:00 +35°C° 0 mm 6 mps 755 mmHg 49%
    15:00 +35°C° 0 mm 7 mps 755 mmHg 51%
    16:00 +33°C° 0 mm 6 mps 755 mmHg 57%
    17:00 +32°C° 0 mm 6 mps 756 mmHg 64%
    18:00 +29°C° 0 mm 5 mps 756 mmHg 70%
    19:00 +29°C° 0 mm 5 mps 757 mmHg 72%
    20:00 +28°C° 0 mm 5 mps 757 mmHg 74%
    21:00 +28°C° 0 mm 5 mps 758 mmHg 77%
    22:00 +28°C° 0 mm 5 mps 757 mmHg 78%
    23:00 +27°C° 0 mm 5 mps 757 mmHg 80%

    25 September, Monday

    Time Temperature Precipitation Wind Pressure Humidity
    00:00 +27°C° 0 mm 5 mps 756 mmHg 81%
    01:00 +27°C° 0 mm 5 mps 756 mmHg 81%
    02:00 +27°C° 0 mm 5 mps 756 mmHg 80%
    03:00 +27°C° 0 mm 5 mps 755 mmHg 80%
    04:00 +27°C° 0 mm 5 mps 756 mmHg 80%
    05:00 +27°C° 0 mm 5 mps 756 mmHg 80%
    06:00 +27°C° 0 mm 5 mps 757 mmHg 80%
    07:00 +29°C° 0 mm 5 mps 757 mmHg 72%
    08:00 +32°C° 0 mm 5 mps 757 mmHg 64%
    09:00 +34°C° 0 mm 5 mps 758 mmHg 56%
    10:00 +35°C° 0 mm 6 mps 757 mmHg 53%
    11:00 +36°C° 0 mm 6 mps 756 mmHg 49%
    12:00 +38°C° 0 mm 7 mps 756 mmHg 46%
    13:00 +38°C° 0 mm 7 mps 755 mmHg 47%
    14:00 +36°C° 0 mm 7 mps 755 mmHg 48%
    15:00 +36°C° 0 mm 7 mps 754 mmHg 49%
    16:00 +34°C° 0.1 mm 7 mps 755 mmHg 57%
    17:00 +32°C° 0.1 mm 6 mps 755 mmHg 65%
    18:00 +29°C° 0.1 mm 6 mps 755 mmHg 73%
    19:00 +29°C° 0.1 mm 6 mps 756 mmHg 75%
    20:00 +28°C° 0.1 mm 5 mps 756 mmHg 77%
    21:00 +28°C° 0.1 mm 5 mps 757 mmHg 79%
    22:00 +28°C° 0.1 mm 5 mps 757 mmHg 78%
    23:00 +28°C° 0.1 mm 5 mps 756 mmHg 78%

    26 September, Tuesday

    Time Temperature Precipitation Wind Pressure Humidity
    00:00 +27°C° 0.1 mm 5 mps 756 mmHg 77%
    01:00 +27°C° 0 mm 5 mps 755 mmHg 76%
    02:00 +27°C° 0 mm 5 mps 755 mmHg 76%
    03:00 +27°C° 0 mm 5 mps 755 mmHg 75%
    04:00 +27°C° 0 mm 5 mps 755 mmHg 75%
    05:00 +27°C° 0 mm 5 mps 756 mmHg 74%
    06:00 +27°C° 0 mm 5 mps 756 mmHg 74%
    07:00 +29°C° 0 mm 5 mps 757 mmHg 68%
    08:00 +32°C° 0 mm 5 mps 757 mmHg 61%
    09:00 +34°C° 0 mm 4 mps 757 mmHg 54%
    10:00 +34°C° 0 mm 5 mps 756 mmHg 52%
    11:00 +35°C° 0 mm 5 mps 756 mmHg 49%
    12:00 +36°C° 0 mm 5 mps 755 mmHg 47%
    13:00 +36°C° 0 mm 5 mps 755 mmHg 47%
    14:00 +35°C° 0 mm 5 mps 755 mmHg 48%
    15:00 +35°C° 0 mm 5 mps 754 mmHg 49%
    16:00 +33°C° 0 mm 4 mps 755 mmHg 53%
    17:00 +32°C° 0 mm 4 mps 755 mmHg 58%
    18:00 +30°C° 0 mm 4 mps 755 mmHg 63%
    19:00 +29°C° 0 mm 4 mps 756 mmHg 63%
    20:00 +29°C° 0 mm 3 mps 756 mmHg 64%
    21:00 +29°C° 0 mm 3 mps 757 mmHg 64%
    22:00 +28°C° 0.1 mm 3 mps 757 mmHg 64%
    23:00 +28°C° 0.1 mm 3 mps 756 mmHg 64%
    Show more